Tracking 25648 objects as of 17-May-2022
HD Live streaming from Space Station
objects crossing your sky now

SL-14 DEB

Track SL-14 DEB now!
10-day predictions


NORAD ID: 45346
Int'l Code: 1991-056CF
Perigee: 1,080.9 km
Apogee: 1,269.0 km
Inclination: 82.6 °
Period: 108.7 minutes
Semi major axis: 7545 km
RCS: Unknown
Launch date: August 15, 1991
Source: Commonwealth of Independent States (former USSR) (CIS)
Launch site: PLESETSK MISSILE AND SPACE COMPLEX (PKMTR)

Note: This is SATELLITE DEBRIS
aabbcc
Your satellite tracking list
Your tracking list is empty




NASA's NSSDC Master Catalog

Two Line Element Set (TLE):
1 45346U 91056CF  22136.63169541  .00003524  00000-0  78398-2 0  9993
2 45346  82.6350 114.4004 0124667  71.7703 289.6946 13.24445710106904
Source of the keplerian elements: AFSPC